Regional Weather Roundup
Issued by NWS Green Bay, WI

Home | Current Version | Previous Version | Text Only | Print | Product List | Glossary On
Versions: 1 2 3 4 5 6 7 8 9 10 11 12 13 14 15 16 17 18 19 20 21 22 23 24 25 26 27 28 29 30 31 32 33 34 35 36 37 38 39 40 41 42 43 44 45 46 47 48 49 50
000
ASUS43 KGRB 251201
RWRGRB

NORTH-CENTRAL AND NORTHEAST WISCONSIN REGIONAL WEATHER ROUNDUP
NATIONAL WEATHER SERVICE GREEN BAY WI
700 AM CDT TUE JUL 25 2017

WIZ005-009-010>012-018-019-251300-
NORTH CENTRAL WISCONSIN

CITY           SKY/WX    TMP DP  RH WIND       PRES   REMARKS
IRONWOOD       SUNNY     62  56  80 VRB5      30.13R
MANITOWISH WTR NOT AVBL
ARBOR VITAE    NOT AVBL
EAGLE RIVER    NOT AVBL
LAND O LAKES   NOT AVBL
RHINELANDER    CLOUDY    55  53  93 SE3       30.17S
PHILLIPS       CLOUDY    58  55  88 S8        30.15R
ANTIGO         NOT AVBL
TOMAHAWK       NOT AVBL
MERRILL        PTSUNNY   57  54  91 SE3       30.16F
$$

WIZ013-073-251300-
NORTHEAST WISCONSIN

CITY           SKY/WX    TMP DP  RH WIND       PRES   REMARKS
IRON MOUNTAIN  PTSUNNY   58  53  84 CALM      30.18R
MARINETTE      MOSUNNY   61  57  87 MISG      30.18S
$$

WIZ017-030-035>037-045-251300-
CENTRAL WISCONSIN

CITY           SKY/WX    TMP DP  RH WIND       PRES   REMARKS
MEDFORD        NOT AVBL
WAUSAU         PTSUNNY   57  52  83 E7        30.14F
MOSINEE        PTSUNNY   55  54  94 SE5       30.16S
MARSHFIELD     CLOUDY    58  54  86 S6        30.16R
WISC RAPIDS    MOSUNNY   57  54  89 SE5       30.17R
STEVENS POINT  NOT AVBL
WAUPACA        NOT AVBL
SHAWANO        NOT AVBL
CLINTONVILLE   NOT AVBL
WAUTOMA        PTSUNNY   52  50  93 CALM      30.18S
$$

WIZ038-039-048-051-251300-
FOX VALLEY

CITY           SKY/WX    TMP DP  RH WIND       PRES   REMARKS
NWS GREEN BAY  CLOUDY    57  56  96 CALM      30.19R
APPLETON       MOSUNNY   61  50  67 S7        30.18R
OSHKOSH        CLOUDY    57  52  83 S5        30.18R
FOND DU LAC    SUNNY     56  51  84 SE3       30.19R
$$

WIZ022-050-052-251300-
EAST CENTRAL WISCONSIN

CITY           SKY/WX    TMP DP  RH WIND       PRES   REMARKS
EPHRAIM        NOT AVBL
WASHINGTON ISL NOT AVBL
STURGEON BAY     N/A     62  58  86 MISG      30.19R
MANITOWOC      NOT AVBL
SHEBOYGAN      MOSUNNY   57  56  96 CALM      30.19R
$$

LMZ563-521-522-541>543-251300-
LAKESHORE

STATION/POSITION TIME  TEMP    WIND        PRES    VSBY  WAVE
                       AIR SEA DIR/SP/G                  HT/PER
                 (UTC) (F)     (DEG/KT/KT) (MB)    (MI)  (FT/S)
SHEBOYGAN LKSHOR 1100   61     240/  4/  4 1021.3S
KEWAUNEE LKSHORE 1124   55     310/  3/  4 1020.8
NORTHPORT PIER   1140   62     150/  3/  5 1021.7R
N MID LAKE BUOY  1050   66 66  130/  2/  4 1022.5R         0
S GREEN BAY BUOY 1130   66 72  130/  8/ 10 1021.3R
SISTER BAY LKSHO 1102   60     120/  4/  5   N/A
CHAMBERS ISLAND  1140   62     140/  2/  4 1021.7R
MENOMINEE LKSHOR 1124   67     170/  4/  5 1021.4
$$




USA.gov is the U.S. government's official web portal to all federal, state and local government web resources and services.